sat.trackr.live / text

‹ back to catalog

YAOGAN-20 01B

NORAD 40110 · 2014-047B

PAYLOAD ACTIVE UNKNOWN

§ Identity

Operator
Country
PRC
Launch date
2014-08-09
Launch site
JSC
Launch vehicle
Mass (kg)
RCS (m²)
2.41

External: N2YO · Heavens-Above · Gunter

§ Orbital elements

Epoch: 2026-05-25T04:09:14.570784Z

Period
107.03 min
Inclination
63.3790°
Eccentricity
0.0388099
Mean motion
13.45437618 rev/d
Perigee alt
799.3 km
Apogee alt
1,378.9 km
Semi-major
7,467.2 km
B*
1.3069e-4
RAAN
79.3616°
Arg perigee
14.5703°
Mean anomaly
346.6141°
Rev number
57,918

§ Raw data

YAOGAN-20 01B1 40110U 14047B   26145.17308531  .00000031  00000+0  13069-3 0  99932 40110  63.3790  79.3616 0388099  14.5703 346.6141 13.45437618579182

JSON: /api/v1/satellites/40110 · /tle

For live sub-satellite position, see the globe view (requires WebGL).

§ Visibility from observer

Set your observer location to see the next 7 days of passes ≥ 10°. The values pass through the URL so the page stays shareable.

No JS? Fill the form by hand. The geolocation button needs JavaScript.